User: anonymous
Location: Oshawa
(43.9000°N, 78.8670°W)
Time: 05:50:16
(UTC-04:00)
Language:

CZ-4C R/B - Orbit

View from above orbital plane
View from above orbital plane
View from above satellite
View from above satellite

Ground track
Ground track

The orbit data is extracted from the following two-line orbital elements,

1 32290U 07055B   14212.75134322  .00005014  00000-0  19821-3 0  9152
2 32290 097.5730 287.7473 0086724 253.4624 263.8710 15.22502461371051
Epoch (UTC): 31 July 2014 18:01:56
Eccentricity: 0.0086724
inclination: 97.5730°
perigee height: 438 km
apogee height: 558 km
right ascension of ascending node: 287.7473°
argument of perigee: 253.4624°
revolutions per day: 15.22502461
mean anomaly at epoch: 263.8710°
orbit number at epoch: 37105

The dashed part of the orbit path shows where the satellite is in the earth's shadow,  

DLR